AKJ1505 VAAH-VAPO

Flight info

Callsign AKJ1505
Flight time 0h 56m
Altitude 35000
Route QQZ1A QQZ W77 SG J69 SRD J40 PPN
Aircraft B738/M-SDE1FGHILORVWXY/HB1

Departure

Time 2026-04-28 17:30
Airport Sardar Vallabh Patel International Airport (VAAH)

Arrival

Time 2026-04-28 18:26
Airport Pune International Airport (VAPO)
Time Latitude Longitude Altitude Speed Heading
2026-04-28 17:05 23.07070 72.61968 194 ft 0 kts 46°
2026-04-28 17:18 23.07065 72.61962 194 ft 4 kts 45°
2026-04-28 17:19 23.07047 72.61943 209 ft 3 kts 45°
2026-04-28 17:19 23.07035 72.61922 203 ft 4 kts 95°
2026-04-28 17:19 23.07046 72.61898 209 ft 3 kts 135°
2026-04-28 17:19 23.07052 72.61892 202 ft 0 kts 135°
2026-04-28 17:22 23.07051 72.61892 202 ft 1 kts 135°
2026-04-28 17:22 23.07031 72.61914 205 ft 8 kts 135°
2026-04-28 17:23 23.06884 72.62087 194 ft 8 kts 105°
2026-04-28 17:23 23.06911 72.62143 193 ft 8 kts 69°
2026-04-28 17:23 23.06860 72.62208 205 ft 18 kts 136°
2026-04-28 17:23 23.06865 72.62286 193 ft 10 kts 27°
2026-04-28 17:24 23.06942 72.62364 192 ft 20 kts 45°
2026-04-28 17:24 23.07056 72.62486 189 ft 24 kts 44°
2026-04-28 17:24 23.07173 72.62611 196 ft 23 kts 44°
2026-04-28 17:24 23.07285 72.62731 184 ft 22 kts 45°
2026-04-28 17:25 23.07395 72.62848 192 ft 22 kts 45°
2026-04-28 17:25 23.07606 72.63073 192 ft 21 kts 42°
2026-04-28 17:25 23.07708 72.63176 192 ft 20 kts 44°
2026-04-28 17:26 23.07805 72.63279 190 ft 19 kts 45°
2026-04-28 17:26 23.07889 72.63387 193 ft 19 kts 68°
2026-04-28 17:26 23.07974 72.63507 190 ft 22 kts 43°
2026-04-28 17:26 23.08092 72.63628 194 ft 23 kts 45°
2026-04-28 17:27 23.08213 72.63759 192 ft 26 kts 45°
2026-04-28 17:27 23.08335 72.63892 197 ft 25 kts 45°
2026-04-28 17:27 23.08459 72.64023 198 ft 26 kts 44°
2026-04-28 17:27 23.08582 72.64155 198 ft 24 kts 47°
2026-04-28 17:28 23.08583 72.64241 202 ft 17 kts 133°
2026-04-28 17:28 23.08627 72.64412 200 ft 13 kts 44°
2026-04-28 17:28 23.08695 72.64488 195 ft 16 kts 44°
2026-04-28 17:29 23.08778 72.64589 194 ft 11 kts 82°
2026-04-28 17:29 23.08816 72.64654 191 ft 4 kts
2026-04-28 17:29 23.08819 72.64620 196 ft 9 kts 227°
2026-04-28 17:30 23.08632 72.64419 202 ft 69 kts 224°
2026-04-28 17:30 23.07325 72.63012 394 ft 175 kts 224°
2026-04-28 17:30 23.06436 72.62085 1179 ft 179 kts 223°
2026-04-28 17:31 23.05506 72.61198 2108 ft 177 kts 216°
2026-04-28 17:31 23.02799 72.60660 2826 ft 232 kts 166°
2026-04-28 17:32 22.99969 72.62736 3310 ft 264 kts 130°
2026-04-28 17:32 22.98799 72.64284 3239 ft 264 kts 131°
2026-04-28 17:32 22.97532 72.65743 3450 ft 268 kts 135°
2026-04-28 17:32 22.96204 72.67170 4348 ft 268 kts 136°
2026-04-28 17:33 22.94872 72.68586 5340 ft 269 kts 136°
2026-04-28 17:33 22.93523 72.70024 6210 ft 273 kts 136°
2026-04-28 17:33 22.92161 72.71479 7070 ft 277 kts 136°
2026-04-28 17:33 22.91230 72.72475 7647 ft 279 kts 136°
2026-04-28 17:34 22.89384 72.74449 8758 ft 284 kts 136°
2026-04-28 17:34 22.87967 72.75963 9570 ft 288 kts 136°
2026-04-28 17:34 22.86489 72.77442 10343 ft 293 kts 140°
2026-04-28 17:34 22.84837 72.78880 10610 ft 317 kts 142°
2026-04-28 17:35 22.83025 72.80392 10880 ft 338 kts 143°
2026-04-28 17:35 22.81134 72.81968 11488 ft 347 kts 143°
2026-04-28 17:35 22.79215 72.83577 12252 ft 350 kts 142°
2026-04-28 17:35 22.77289 72.85205 13019 ft 353 kts 142°
2026-04-28 17:36 22.75345 72.86855 13751 ft 357 kts 142°
2026-04-28 17:36 22.73379 72.88528 14459 ft 361 kts 142°
2026-04-28 17:36 22.71397 72.90217 15158 ft 365 kts 142°
2026-04-28 17:36 22.69395 72.91922 15840 ft 368 kts 142°
2026-04-28 17:37 22.67369 72.93646 16498 ft 372 kts 142°
2026-04-28 17:37 22.65322 72.95387 17149 ft 376 kts 142°
2026-04-28 17:37 22.63257 72.97145 17773 ft 380 kts 142°
2026-04-28 17:37 22.61172 72.98920 18387 ft 383 kts 142°
2026-04-28 17:38 22.59070 73.00709 18992 ft 387 kts 142°
2026-04-28 17:38 22.56944 73.02519 19573 ft 390 kts 142°
2026-04-28 17:38 22.54805 73.04339 20142 ft 394 kts 142°
2026-04-28 17:38 22.52643 73.06178 20698 ft 397 kts 142°
2026-04-28 17:39 22.50463 73.08031 21237 ft 400 kts 142°
2026-04-28 17:39 22.48268 73.09896 21755 ft 403 kts 142°
2026-04-28 17:39 22.43817 73.13677 22746 ft 410 kts 142°
2026-04-28 17:40 22.41568 73.15586 23223 ft 413 kts 142°
2026-04-28 17:40 22.39298 73.17513 23691 ft 416 kts 142°
2026-04-28 17:40 22.37048 73.19422 24136 ft 419 kts 142°
2026-04-28 17:40 22.34717 73.21395 24584 ft 422 kts 143°
2026-04-28 17:41 22.32233 73.22994 24959 ft 424 kts 160°
2026-04-28 17:41 22.29394 73.23885 25414 ft 425 kts 166°
2026-04-28 17:41 22.26520 73.24693 25834 ft 428 kts 166°
2026-04-28 17:41 22.23626 73.25504 26198 ft 431 kts 166°
2026-04-28 17:42 22.20717 73.26328 26563 ft 434 kts 165°
2026-04-28 17:42 22.17789 73.27169 26932 ft 437 kts 165°
2026-04-28 17:42 22.14848 73.28022 27296 ft 439 kts 165°
2026-04-28 17:42 22.11889 73.28886 27648 ft 441 kts 165°
2026-04-28 17:43 22.08921 73.29756 27977 ft 444 kts 165°
2026-04-28 17:43 22.05934 73.30632 28308 ft 446 kts 165°
2026-04-28 17:43 22.02934 73.31512 28629 ft 448 kts 165°
2026-04-28 17:43 21.99913 73.32398 28943 ft 450 kts 165°
2026-04-28 17:44 21.96882 73.33286 29247 ft 453 kts 165°
2026-04-28 17:44 21.93834 73.34178 29542 ft 455 kts 165°
2026-04-28 17:44 21.90777 73.35073 29837 ft 456 kts 165°
2026-04-28 17:44 21.87711 73.35970 30222 ft 456 kts 165°
2026-04-28 17:45 21.84661 73.36861 30659 ft 454 kts 165°
2026-04-28 17:45 21.81618 73.37751 31081 ft 452 kts 165°
2026-04-28 17:45 21.78581 73.38638 31429 ft 452 kts 165°
2026-04-28 17:45 21.75547 73.39523 31747 ft 452 kts 165°
2026-04-28 17:46 21.72513 73.40409 32107 ft 451 kts 165°
2026-04-28 17:46 21.69498 73.41288 32463 ft 450 kts 165°
2026-04-28 17:46 21.66476 73.42169 32797 ft 449 kts 165°
2026-04-28 17:46 21.63448 73.43051 33109 ft 449 kts 165°
2026-04-28 17:47 21.60445 73.43926 33425 ft 449 kts 165°
2026-04-28 17:47 21.57426 73.44805 33744 ft 448 kts 165°
2026-04-28 17:47 21.54420 73.45680 34049 ft 447 kts 165°
2026-04-28 17:47 21.52438 73.46257 34237 ft 447 kts 165°
2026-04-28 17:48 21.48424 73.47424 34621 ft 446 kts 165°
2026-04-28 17:48 21.45429 73.48295 34906 ft 445 kts 165°
2026-04-28 17:48 21.42429 73.49166 34996 ft 449 kts 165°
2026-04-28 17:49 21.36377 73.50924 35002 ft 450 kts 165°
2026-04-28 17:49 21.30374 73.52666 34987 ft 444 kts 165°
2026-04-28 17:50 21.24422 73.54391 35009 ft 443 kts 165°
2026-04-28 17:50 21.18512 73.56103 34998 ft 443 kts 165°
2026-04-28 17:51 21.12605 73.57973 35001 ft 443 kts 162°
2026-04-28 17:51 21.06756 73.60059 34998 ft 443 kts 161°
2026-04-28 17:52 21.00900 73.62158 35007 ft 444 kts 162°
2026-04-28 17:52 20.92093 73.65261 35006 ft 445 kts 162°
2026-04-28 17:53 20.86204 73.67320 34996 ft 445 kts 162°
2026-04-28 17:53 20.80309 73.69380 34998 ft 446 kts 162°
2026-04-28 17:54 20.74411 73.71439 35001 ft 446 kts 162°
2026-04-28 17:54 20.68507 73.73499 35000 ft 447 kts 162°
2026-04-28 17:55 20.62596 73.75561 35004 ft 447 kts 162°
2026-04-28 17:55 20.56703 73.77614 35003 ft 447 kts 162°
2026-04-28 17:56 20.50782 73.79676 35008 ft 446 kts 162°
2026-04-28 17:56 20.44877 73.81730 35003 ft 446 kts 162°
2026-04-28 17:57 20.38971 73.83783 35003 ft 446 kts 162°
2026-04-28 17:57 20.33073 73.85831 35005 ft 446 kts 162°
2026-04-28 17:58 20.27177 73.87877 35002 ft 445 kts 162°
2026-04-28 17:58 20.21287 73.89920 35002 ft 445 kts 162°
2026-04-28 17:59 20.15420 73.91998 34991 ft 445 kts 158°
2026-04-28 17:59 20.10128 73.95367 35005 ft 444 kts 139°
2026-04-28 18:00 20.05777 73.99933 34998 ft 436 kts 134°
2026-04-28 18:00 20.01575 74.04545 34992 ft 433 kts 134°
2026-04-28 18:01 19.99464 74.06839 34651 ft 434 kts 135°
2026-04-28 18:01 19.97365 74.09103 34331 ft 427 kts 135°
2026-04-28 18:01 19.95283 74.11338 33921 ft 424 kts 135°
2026-04-28 18:01 19.93211 74.13554 33541 ft 421 kts 135°
2026-04-28 18:02 19.91155 74.15751 33132 ft 418 kts 135°
2026-04-28 18:02 19.89115 74.17931 32736 ft 415 kts 135°
2026-04-28 18:02 19.87111 74.20071 32344 ft 412 kts 135°
2026-04-28 18:02 19.85069 74.22251 31946 ft 409 kts 135°
2026-04-28 18:03 19.83067 74.24388 31550 ft 407 kts 135°
2026-04-28 18:03 19.81078 74.26511 31147 ft 404 kts 135°
2026-04-28 18:03 19.79126 74.28594 30771 ft 402 kts 135°
2026-04-28 18:03 19.77160 74.30691 30394 ft 400 kts 135°
2026-04-28 18:04 19.75178 74.32804 30002 ft 397 kts 135°
2026-04-28 18:04 19.73234 74.34876 29617 ft 394 kts 135°
2026-04-28 18:04 19.71208 74.36749 29202 ft 391 kts 149°
2026-04-28 18:04 19.68720 74.37832 28831 ft 386 kts 169°
2026-04-28 18:05 19.66066 74.38016 28467 ft 381 kts 186°
2026-04-28 18:05 19.64315 74.37674 28201 ft 379 kts 198°
2026-04-28 18:05 19.61078 74.36353 27720 ft 375 kts 203°
2026-04-28 18:05 19.58686 74.35272 27332 ft 373 kts 203°
2026-04-28 18:06 19.56313 74.34187 26950 ft 371 kts 203°
2026-04-28 18:06 19.53947 74.33113 26569 ft 368 kts 203°
2026-04-28 18:06 19.51593 74.32057 26195 ft 366 kts 203°
2026-04-28 18:06 19.49250 74.31016 25817 ft 364 kts 202°
2026-04-28 18:07 19.46920 74.29987 25443 ft 362 kts 202°
2026-04-28 18:07 19.44597 74.28966 25071 ft 360 kts 202°
2026-04-28 18:07 19.42284 74.27950 24700 ft 358 kts 202°
2026-04-28 18:07 19.39989 74.26943 24320 ft 356 kts 202°
2026-04-28 18:08 19.37704 74.25942 23954 ft 354 kts 202°
2026-04-28 18:08 19.35432 74.24946 23597 ft 353 kts 202°
2026-04-28 18:08 19.33173 74.23956 23234 ft 351 kts 202°
2026-04-28 18:08 19.30922 74.22970 22871 ft 349 kts 202°
2026-04-28 18:09 19.28686 74.21990 22509 ft 347 kts 202°
2026-04-28 18:09 19.26464 74.21017 22149 ft 345 kts 202°
2026-04-28 18:09 19.24249 74.20048 21733 ft 344 kts 202°
2026-04-28 18:09 19.22045 74.19083 21123 ft 343 kts 202°
2026-04-28 18:10 19.19821 74.18174 20493 ft 343 kts 196°
2026-04-28 18:10 19.17459 74.17788 20055 ft 344 kts 185°
2026-04-28 18:10 19.15093 74.17581 19796 ft 339 kts 185°
2026-04-28 18:10 19.12752 74.17386 19469 ft 336 kts 185°
2026-04-28 18:11 19.10429 74.17190 19099 ft 335 kts 185°
2026-04-28 18:11 19.08112 74.16988 18737 ft 333 kts 185°
2026-04-28 18:11 19.05806 74.16781 18391 ft 331 kts 185°
2026-04-28 18:11 19.03517 74.16573 18048 ft 329 kts 185°
2026-04-28 18:12 19.01237 74.16363 17701 ft 328 kts 185°
2026-04-28 18:12 18.98975 74.16153 17356 ft 326 kts 185°
2026-04-28 18:12 18.96718 74.15943 17036 ft 324 kts 185°
2026-04-28 18:12 18.94508 74.15737 16917 ft 314 kts 185°
2026-04-28 18:13 18.92356 74.15537 16760 ft 307 kts 185°
2026-04-28 18:13 18.90237 74.15339 16449 ft 305 kts 185°
2026-04-28 18:13 18.88124 74.15142 16118 ft 305 kts 185°
2026-04-28 18:13 18.86026 74.14947 15793 ft 304 kts 185°
2026-04-28 18:14 18.83924 74.14751 15489 ft 302 kts 185°
2026-04-28 18:14 18.82542 74.14622 15286 ft 301 kts 185°
2026-04-28 18:14 18.79762 74.14363 14855 ft 299 kts 185°
2026-04-28 18:14 18.77693 74.14170 14561 ft 298 kts 185°
2026-04-28 18:15 18.76332 74.14043 14362 ft 297 kts 185°
2026-04-28 18:15 18.74280 74.13852 14052 ft 295 kts 185°
2026-04-28 18:15 18.71576 74.13600 13647 ft 293 kts 185°
2026-04-28 18:15 18.69545 74.13411 13342 ft 292 kts 185°
2026-04-28 18:16 18.67528 74.13224 13037 ft 291 kts 185°
2026-04-28 18:16 18.66168 74.13097 12832 ft 288 kts 185°
2026-04-28 18:16 18.64202 74.12914 12504 ft 281 kts 185°
2026-04-28 18:16 18.62283 74.12863 12228 ft 272 kts 169°
2026-04-28 18:17 18.60590 74.13615 12004 ft 262 kts 141°
2026-04-28 18:17 18.59476 74.15082 11687 ft 257 kts 112°
2026-04-28 18:17 18.59038 74.16891 11277 ft 256 kts 99°
2026-04-28 18:17 18.58777 74.18767 10713 ft 262 kts 98°
2026-04-28 18:18 18.58531 74.20698 10119 ft 268 kts 98°
2026-04-28 18:18 18.58286 74.22661 9539 ft 273 kts 98°
2026-04-28 18:18 18.58038 74.24664 8962 ft 277 kts 98°
2026-04-28 18:18 18.57874 74.25997 8649 ft 277 kts 98°
2026-04-28 18:19 18.57511 74.28666 8070 ft 273 kts 105°
2026-04-28 18:19 18.56576 74.30366 7564 ft 272 kts 140°
2026-04-28 18:19 18.54901 74.31200 7244 ft 269 kts 174°
2026-04-28 18:19 18.53099 74.30892 7039 ft 262 kts 210°
2026-04-28 18:20 18.51852 74.29574 7045 ft 256 kts 244°
2026-04-28 18:20 18.51547 74.27742 6898 ft 261 kts 278°
2026-04-28 18:20 18.52286 74.26033 6615 ft 260 kts 313°
2026-04-28 18:20 18.53661 74.24817 6382 ft 257 kts 316°
2026-04-28 18:21 18.54788 74.23370 6102 ft 255 kts 300°
2026-04-28 18:21 18.55545 74.21695 5908 ft 251 kts 289°
2026-04-28 18:21 18.56061 74.19963 5804 ft 246 kts 283°
2026-04-28 18:21 18.56427 74.18206 5698 ft 246 kts 280°
2026-04-28 18:22 18.56681 74.16459 5583 ft 241 kts 275°
2026-04-28 18:22 18.56818 74.14730 5478 ft 233 kts 273°
2026-04-28 18:22 18.56918 74.13051 5331 ft 228 kts 273°
2026-04-28 18:22 18.57016 74.11399 5167 ft 223 kts 273°
2026-04-28 18:23 18.57116 74.09777 5002 ft 221 kts 273°
2026-04-28 18:23 18.57215 74.08179 4772 ft 214 kts 273°
2026-04-28 18:23 18.57311 74.06631 4438 ft 209 kts 273°
2026-04-28 18:23 18.57404 74.05130 4153 ft 202 kts 273°
2026-04-28 18:24 18.57495 74.03670 3854 ft 201 kts 273°
2026-04-28 18:24 18.57549 74.02665 3603 ft 203 kts 275°
2026-04-28 18:24 18.57675 74.00756 3476 ft 192 kts 276°
2026-04-28 18:24 18.57736 73.99364 3181 ft 187 kts 276°
2026-04-28 18:25 18.57834 73.98039 3056 ft 172 kts 276°
2026-04-28 18:25 18.57907 73.96842 2806 ft 156 kts 274°
2026-04-28 18:25 18.57966 73.95708 2484 ft 156 kts 274°
2026-04-28 18:26 18.58136 73.93409 2009 ft 154 kts 272°
2026-04-28 18:26 18.58206 73.92320 1925 ft 139 kts 272°
2026-04-28 18:26 18.58259 73.91459 1925 ft 96 kts 274°
2026-04-28 18:26 18.58282 73.91024 1925 ft 28 kts 272°
2026-04-28 18:27 18.58243 73.90947 1925 ft 7 kts 196°
2026-04-28 18:27 18.58198 73.90943 1925 ft 7 kts 185°
2026-04-28 18:27 18.58153 73.90936 1925 ft 6 kts 191°
2026-04-28 18:27 18.58109 73.90926 1925 ft 7 kts 191°
2026-04-28 18:28 18.58063 73.90930 1925 ft 7 kts 141°
2026-04-28 18:28 18.58046 73.90964 1925 ft 1 kts 139°
2026-04-28 18:28 18.58029 73.90967 1925 ft 4 kts 181°
2026-04-28 18:28 18.57999 73.90965 1925 ft 4 kts 186°
2026-04-28 18:29 18.57997 73.90964 1925 ft 0 kts 186°